Location: Paddlesworth
(51.1000°N, 1.1333°E)
Time: 06:54:54
(UTC+00:00)

ERBS - Visible Passes

Search period start: 26 September 2021 00:00
Search period end: 06 October 2021 00:00
Orbit: 401 x 408 km, 57.0° (Epoch: 25 September)

Date Brightness Start Highest point End Pass type
(mag) Time Alt. Az. Time Alt. Az. Time Alt. Az.
26 Sep 3.6 19:37:53 10° NW 19:40:50 29° N 19:41:29 27° NNE visible
26 Sep 5.7 21:13:57 10° WNW 21:14:09 11° WNW 21:14:09 11° WNW visible
27 Sep 3.8 18:45:59 10° WNW 18:48:54 28° N 18:51:24 12° ENE visible
27 Sep 4.2 20:22:14 10° NW 20:24:04 28° NW 20:24:04 28° NW visible
28 Sep 3.2 19:30:28 10° NW 19:33:32 35° NNE 19:33:59 33° NE visible
28 Sep 5.7 21:06:28 10° WNW 21:06:39 11° WNW 21:06:39 11° WNW visible
29 Sep 3.6 18:38:38 10° NW 18:41:36 30° N 18:43:54 14° ENE visible
29 Sep 4.0 20:14:40 10° WNW 20:16:34 31° NW 20:16:34 31° NW visible
30 Sep 2.6 19:22:54 10° NW 19:26:06 49° NNE 19:26:29 46° NE visible
30 Sep 5.7 20:59:03 10° WNW 20:59:09 11° WNW 20:59:09 11° WNW visible
01 Oct 3.2 18:31:06 10° NW 18:34:11 36° NNE 18:36:25 16° ENE visible
01 Oct 3.9 20:07:06 10° WNW 20:09:05 32° WNW 20:09:05 32° WNW visible
02 Oct 2.1 19:15:15 10° WNW 19:18:32 81° NNE 19:19:03 60° ESE visible
03 Oct 2.5 18:23:25 10° NW 18:26:39 52° NNE 18:29:03 16° E visible
03 Oct 4.1 19:59:36 10° WNW 20:01:43 27° WSW 20:01:43 27° WSW visible
04 Oct 2.6 19:07:35 10° WNW 19:10:48 55° SW 19:11:46 37° SSE visible
05 Oct 2.1 18:15:40 10° WNW 18:18:57 85° NNE 18:21:52 13° ESE visible
05 Oct 4.7 19:52:24 10° W 19:54:33 16° SW 19:54:33 16° SW visible
